This demonstration page uses our WeatherBlox Daily Observations layout. Learn more.

Left ArrowRight Arrow

41.12389, -100.76542

Hourly Observations for March 28, 2018

Temp ( °F °C ) Dew Point ( °F °C ) Humidity (%) Winds ( mph kmh ) Pressure ( in mb ) Visibility ( mi km ) Precip ( " mm )
12:53 am 00:53 Clear 39 3.9 26 -3.3 60 60 S 9 15 29.95 1014 10 16 0.00 0.00
1:53 am 01:53 Clear 37 2.8 26 -3.3 65 65 S 10 17 29.93 1014 10 16 0.00 0.00
2:53 am 02:53 Clear 35 1.7 26 -3.3 70 70 SE 3 6 29.92 1013 10 16 0.00 0.00
3:53 am 03:53 Clear 39 3.9 28 -2.2 65 65 SSW 12 19 29.87 1012 10 16 0.00 0.00
4:53 am 04:53 Clear 37 2.8 28 -2.2 70 70 S 7 11 29.84 1011 10 16 0.00 0.00
5:53 am 05:53 Clear 33 0.6 26 -3.3 75 75 W 3 6 29.85 1011 10 16 0.00 0.00
6:53 am 06:53 Clear 31 -0.6 25 -3.9 79 79 Calm 29.86 1011 10 16 0.00 0.00
7:53 am 07:53 Sunny 26 -3.3 23 -5 88 88 Calm 29.89 1012 10 16 0.00 0.00
8:53 am 08:53 Sunny 36 2.2 29 -1.7 76 76 Calm 29.91 1013 10 16 0.00 0.00
9:53 am 09:53 Sunny 41 5 30 -1.1 65 65 Calm 29.92 1013 10 16 0.00 0.00
10:53 am 10:53 Sunny 53 11.7 32 0 45 45 NNE 21 33 29.89 1012 10 16 0.00 0.00
11:53 am 11:53 Mostly Sunny 56 13.3 33 0.6 42 42 NNE 17 28 29.89 1012 10 16 0.00 0.00
12:53 pm 12:53 Mostly Cloudy 53 11.7 35 1.7 51 51 N 17 28 29.91 1013 10 16 0.00 0.00
1:53 pm 13:53 Cloudy 52 11.1 36 2.2 55 55 N 20 31 29.91 1013 10 16 0.00 0.00
2:53 pm 14:53 Cloudy with Light Rain 49 9.4 37 2.8 64 64 N 15 24 29.93 1014 10 16 0.00 0.03
3:53 pm 15:53 Cloudy 50 10 36 2.2 59 59 N 17 28 29.92 1013 10 16 0.00 0.03
4:53 pm 16:53 Cloudy 51 10.6 33 0.6 50 50 NNE 13 20 29.92 1013 10 16 0.00 0.03
5:53 pm 17:53 Mostly Cloudy 52 11.1 30 -1.1 43 43 N 15 24 29.92 1013 10 16 0.00 0.00
6:53 pm 18:53 Mostly Sunny 51 10.6 28 -2.2 41 41 NNE 13 20 29.92 1013 10 16 0.00 0.00
7:53 pm 19:53 Sunny 49 9.4 31 -0.6 50 50 NE 10 17 29.96 1015 10 16 0.00 0.00
8:53 pm 20:53 Clear 42 5.6 31 -0.6 65 65 NE 7 11 29.99 1016 10 16 0.00 0.00
9:53 pm 21:53 Clear 37 2.8 29 -1.7 73 73 ENE 5 7 30.02 1017 10 16 0.00 0.00
10:53 pm 22:53 Clear 35 1.7 28 -2.2 76 76 Calm 30.03 1017 10 16 0.00 0.00
11:53 pm 23:53 Clear 31 -0.6 26 -3.3 82 82 E 6 9 30.04 1017 10 16 0.00 0.00

Powered by AerisWeather